Simultaneous Nadir Overpasses (SNOs) Predictions

Prediction of SNOs between LANDSAT-8 and METOP-A Satellite Orbit:

Table of predicted SNOs for the next 14.0 days since TLE Epoch: 2/13/2021
Index Date (LANDSAT-8) Time (LANDSAT-8) Lat,Lon (LANDSAT-8) SZA (LANDSAT-8 ) Date (METOP-A) Time (METOP-A) Lat,Lon (METOP-A) SZA (METOP-A ) Distance(km) Time Diff (sec)
1 02/13/2021 05:46:12 81.43, 138.49 96.76 02/13/2021 05:46:01 81.43, 138.29 96.74 3.24 11
2 02/13/2021 06:35:39 -81.42, -54.01 83.28 02/13/2021 06:36:41 -81.42, -54.10 83.26 1.46 62
3 02/16/2021 01:20:27 81.42,-155.31 95.77 02/16/2021 01:20:23 81.42,-155.28 95.78 1.02 4
4 02/16/2021 02:09:54 -81.41, 12.22 84.26 02/16/2021 02:11:03 -81.42, 12.34 84.21 2.12 69
5 02/18/2021 20:05:15 -81.42, 103.50 85.20 02/18/2021 20:04:05 -81.43, 103.49 85.22 1.57 70
6 02/18/2021 20:54:41 81.42, -88.75 94.81 02/18/2021 20:54:45 81.42, -88.87 94.80 1.96 4
7 02/21/2021 15:39:28 -81.42, 170.05 86.19 02/21/2021 15:38:26 -81.43, 169.89 86.22 2.72 62
8 02/21/2021 16:28:55 81.41, -22.62 93.77 02/21/2021 16:29:06 81.42, -22.48 93.80 2.86 11
9 02/24/2021 11:13:42 -81.43,-123.44 87.20 02/24/2021 11:12:47 -81.42,-123.33 87.21 2.04 55



Historial Predications of SNOs between LANDSAT-8 and METOP-A
